sat.trackr.live / text

‹ back to catalog

GEESAT-2 08

NORAD 58912 · 2024-023H

PAYLOAD ACTIVE UNKNOWN

§ Identity

Operator
Country
PRC
Launch date
2024-02-02
Launch site
XICLF
Launch vehicle
Mass (kg)
RCS (m²)

External: N2YO · Heavens-Above · Gunter

§ Orbital elements

Epoch: 2026-05-25T04:45:01.365408Z

Period
97.09 min
Inclination
49.9893°
Eccentricity
0.0004260
Mean motion
14.83149249 rev/d
Perigee alt
616.4 km
Apogee alt
622.4 km
Semi-major
6,997.5 km
B*
2.3026e-4
RAAN
99.7105°
Arg perigee
264.9845°
Mean anomaly
95.0607°
Rev number
12,550

§ Raw data

GEESAT-2 081 58912U 24023H   26145.19793247  .00001673  00000+0  23026-3 0  99982 58912  49.9893  99.7105 0004260 264.9845  95.0607 14.83149249125505

JSON: /api/v1/satellites/58912 · /tle

For live sub-satellite position, see the globe view (requires WebGL).

§ Visibility from observer

Set your observer location to see the next 7 days of passes ≥ 10°. The values pass through the URL so the page stays shareable.

No JS? Fill the form by hand. The geolocation button needs JavaScript.